User: anonymous   Login
Location: Platte
(43.3870°N, 98.8440°W)
Time: 19:24:33
(UTC-06:00)
Language:

Landsat 7 - Orbit

View from above orbital plane
View from above orbital plane
View from above satellite
View from above satellite

Ground track
Ground track

The orbit data is extracted from the following two-line orbital elements,

1 25682U 99020A   14355.28178389  .00000844  00000-0  19734-3 0  9080
2 25682 098.2198 062.4759 0000639 074.8013 285.3254 14.57108205834238
Epoch (UTC): 21 December 2014 06:45:46
Eccentricity: 0.0000639
inclination: 98.2198°
perigee height: 702 km
apogee height: 703 km
right ascension of ascending node: 62.4759°
argument of perigee: 74.8013°
revolutions per day: 14.57108205
mean anomaly at epoch: 285.3254°
orbit number at epoch: 83423

The dashed part of the orbit path shows where the satellite is in the earth's shadow,  

DLR